Weather in Svishtov

Bulgaria     43°37′06″N   25°20′15″E
temp.,
°C
wind,
m/s
gust,
m/s
humid.,
%
clouds,
%
prec.,
mm/h
press.,
hPa
HPBL,
m
13 may, thu
thu1300:00+14wnw3590100 0.6 1008190
03:00+13ene129897 2.7 1008133
06:00+13e119571 0.0 100742
09:00+15ne118585 0.0 1008297
12:00+20nw12605 0.0 10071137
15:00+23nne12476 0.1 10051891
18:00+19ese3464100 0.4 100367
21:00+12n479260 14.2 1007256
14 may, fri
fri1400:00+10sw35964 0.4 1008109
03:00+10s22925 0.4 100829
06:00+10ssw229120 0.0 100921
09:00+16sw356917 0.0 1010325
12:00+20w45504 0.0 10101436
15:00+22wnw46421 0.0 10101998
18:00+22wsw245080 0.0 10091449
21:00+14sse22844 1.6 101112
15 may, sat
sat1500:00+12s228776 0.9 101211
03:00+12ssw1185100 0.9 101210
06:00+11s1183100 0.0 101110
09:00+16ese117195 0.0 1012219
12:00+21e335269 0.0 1011959
15:00+24ene444698 0.0 10091643
18:00+17ese81285100 1.6 1007485
21:00+14ne3693100 6.5 1009170
16 may, sun
sun1600:00+13wnw2296100 0.3 100828
03:00+13wnw119795 0.6 100935
06:00+12ssw229768 0.0 100923
09:00+15wsw338676 0.0 1010452
12:00+18wsw327194 0.1 1010980
15:00+20w226239 0.1 10091174
18:00+21wnw326011 0.1 10081186
21:00+16wsw11785 0.2 100911
17 may, mon
mon1700:00+14sw22884 0.3 100919
03:00+13wsw35933 0.3 101088
06:00+12wsw36921 0.0 1010110
09:00+18w47714 0.0 1011498
12:00+22wnw57560 0.0 10101134
15:00+24wnw45484 0.0 10091666
18:00+24wnw34491 0.0 10091451
21:00+19sse11655 0.0 100911